• In Italy
  • List of Countries
  • For 7 days
  • Water Temperature
  • Satellite Maps
  • Weather Map
  • Weather Widgets
  • user-avatar
    Login

    Hourly Weather Tarin Kowt

    Today, 19 October, Thursday

    Time Temperature Precipitation Wind Pressure Humidity
    00:00 +16°C° 0 mm 1 mps 618 mmHg 15%
    01:00 +15°C° 0 mm 1 mps 618 mmHg 16%
    02:00 +15°C° 0 mm 1 mps 618 mmHg 17%
    03:00 +14°C° 0 mm 1 mps 618 mmHg 17%
    04:00 +14°C° 0 mm 1 mps 617 mmHg 18%
    05:00 +15°C° 0 mm 1 mps 618 mmHg 18%
    06:00 +15°C° 0 mm 1 mps 619 mmHg 17%
    07:00 +16°C° 0 mm 1 mps 620 mmHg 17%
    08:00 +19°C° 0 mm 1 mps 620 mmHg 15%
    09:00 +20°C° 0 mm 2 mps 621 mmHg 13%
    10:00 +23°C° 0 mm 2 mps 621 mmHg 12%
    11:00 +22°C° 0 mm 3 mps 621 mmHg 11%
    12:00 +23°C° 0 mm 4 mps 621 mmHg 10%
    13:00 +25°C° 0 mm 4 mps 621 mmHg 9%
    14:00 +25°C° 0 mm 4 mps 621 mmHg 9%
    15:00 +23°C° 0 mm 5 mps 620 mmHg 9%
    16:00 +23°C° 0 mm 5 mps 620 mmHg 9%
    17:00 +21°C° 0 mm 4 mps 620 mmHg 10%
    18:00 +19°C° 0 mm 3 mps 619 mmHg 11%
    19:00 +17°C° 0 mm 2 mps 619 mmHg 11%
    20:00 +16°C° 0 mm 1 mps 619 mmHg 12%
    21:00 +15°C° 0 mm 1 mps 618 mmHg 13%
    22:00 +14°C° 0 mm 1 mps 618 mmHg 14%
    23:00 +13°C° 0 mm 1 mps 618 mmHg 15%

    Tomorrow, 20 October, Friday

    Time Temperature Precipitation Wind Pressure Humidity
    00:00 +12°C° 0 mm 0 mps 618 mmHg 15%
    01:00 +11°C° 0 mm 0 mps 617 mmHg 16%
    02:00 +10°C° 0 mm 0 mps 617 mmHg 17%
    03:00 +10°C° 0 mm 0 mps 617 mmHg 17%
    04:00 +9°C° 0 mm 0 mps 617 mmHg 18%
    05:00 +10°C° 0 mm 0 mps 617 mmHg 17%
    06:00 +11°C° 0 mm 0 mps 618 mmHg 16%
    07:00 +12°C° 0 mm 0 mps 619 mmHg 16%
    08:00 +15°C° 0 mm 1 mps 620 mmHg 14%
    09:00 +18°C° 0 mm 1 mps 620 mmHg 12%
    10:00 +20°C° 0 mm 1 mps 621 mmHg 10%
    11:00 +21°C° 0 mm 1 mps 621 mmHg 10%
    12:00 +21°C° 0 mm 2 mps 620 mmHg 9%
    13:00 +23°C° 0 mm 2 mps 620 mmHg 8%
    14:00 +21°C° 0 mm 2 mps 620 mmHg 8%
    15:00 +21°C° 0 mm 2 mps 620 mmHg 8%
    16:00 +21°C° 0 mm 2 mps 619 mmHg 8%
    17:00 +19°C° 0 mm 2 mps 619 mmHg 10%
    18:00 +18°C° 0 mm 1 mps 618 mmHg 11%
    19:00 +15°C° 0 mm 1 mps 618 mmHg 13%
    20:00 +14°C° 0 mm 1 mps 618 mmHg 13%
    21:00 +12°C° 0 mm 0 mps 617 mmHg 14%
    22:00 +12°C° 0 mm 0 mps 617 mmHg 15%
    23:00 +11°C° 0 mm 0 mps 617 mmHg 15%

    Day after tomorrow, 21 October, Saturday

    Time Temperature Precipitation Wind Pressure Humidity
    00:00 +10°C° 0 mm 0 mps 616 mmHg 16%
    01:00 +10°C° 0 mm 0 mps 616 mmHg 17%
    02:00 +9°C° 0 mm 0 mps 616 mmHg 17%
    03:00 +9°C° 0 mm 0 mps 615 mmHg 17%
    04:00 +8°C° 0 mm 0 mps 615 mmHg 18%
    05:00 +9°C° 0 mm 0 mps 616 mmHg 17%
    06:00 +10°C° 0 mm 0 mps 616 mmHg 16%
    07:00 +11°C° 0 mm 0 mps 617 mmHg 15%
    08:00 +14°C° 0 mm 1 mps 618 mmHg 13%
    09:00 +18°C° 0 mm 1 mps 618 mmHg 10%
    10:00 +20°C° 0 mm 1 mps 619 mmHg 8%
    11:00 +20°C° 0 mm 2 mps 619 mmHg 8%
    12:00 +20°C° 0 mm 2 mps 618 mmHg 7%
    13:00 +21°C° 0 mm 3 mps 618 mmHg 6%
    14:00 +21°C° 0 mm 3 mps 618 mmHg 6%
    15:00 +21°C° 0 mm 3 mps 618 mmHg 6%
    16:00 +20°C° 0 mm 3 mps 617 mmHg 6%
    17:00 +19°C° 0 mm 2 mps 617 mmHg 7%
    18:00 +17°C° 0 mm 2 mps 617 mmHg 9%
    19:00 +15°C° 0 mm 1 mps 616 mmHg 10%
    20:00 +14°C° 0 mm 1 mps 616 mmHg 10%
    21:00 +13°C° 0 mm 1 mps 616 mmHg 11%
    22:00 +11°C° 0 mm 0 mps 616 mmHg 12%
    23:00 +11°C° 0 mm 0 mps 615 mmHg 12%

    22 October, Sunday

    Time Temperature Precipitation Wind Pressure Humidity
    00:00 +10°C° 0 mm 0 mps 615 mmHg 13%
    01:00 +10°C° 0 mm 0 mps 614 mmHg 13%
    02:00 +10°C° 0 mm 1 mps 614 mmHg 14%
    03:00 +10°C° 0 mm 1 mps 614 mmHg 14%
    04:00 +10°C° 0 mm 1 mps 614 mmHg 14%
    05:00 +11°C° 0 mm 1 mps 615 mmHg 13%
    06:00 +12°C° 0 mm 1 mps 615 mmHg 13%
    07:00 +13°C° 0 mm 1 mps 616 mmHg 12%
    08:00 +15°C° 0 mm 1 mps 617 mmHg 11%
    09:00 +18°C° 0 mm 1 mps 618 mmHg 9%
    10:00 +20°C° 0 mm 1 mps 619 mmHg 8%
    11:00 +20°C° 0 mm 2 mps 618 mmHg 8%
    12:00 +21°C° 0 mm 3 mps 618 mmHg 8%
    13:00 +22°C° 0 mm 4 mps 618 mmHg 7%
    14:00 +21°C° 0 mm 5 mps 618 mmHg 7%
    15:00 +21°C° 0 mm 5 mps 617 mmHg 8%
    16:00 +21°C° 0 mm 5 mps 617 mmHg 8%
    17:00 +19°C° 0 mm 4 mps 617 mmHg 9%
    18:00 +17°C° 0 mm 3 mps 617 mmHg 10%
    19:00 +15°C° 0 mm 2 mps 617 mmHg 11%
    20:00 +15°C° 0 mm 2 mps 616 mmHg 12%
    21:00 +14°C° 0 mm 1 mps 616 mmHg 12%
    22:00 +13°C° 0 mm 1 mps 616 mmHg 13%
    23:00 +13°C° 0 mm 1 mps 616 mmHg 14%

    23 October, Monday

    Time Temperature Precipitation Wind Pressure Humidity
    00:00 +12°C° 0 mm 1 mps 616 mmHg 14%
    01:00 +12°C° 0 mm 1 mps 615 mmHg 15%
    02:00 +11°C° 0 mm 1 mps 615 mmHg 15%
    03:00 +11°C° 0 mm 1 mps 615 mmHg 15%
    04:00 +11°C° 0 mm 1 mps 615 mmHg 15%
    05:00 +11°C° 0 mm 1 mps 616 mmHg 15%
    06:00 +12°C° 0 mm 1 mps 617 mmHg 14%
    07:00 +13°C° 0 mm 1 mps 617 mmHg 13%
    08:00 +15°C° 0 mm 1 mps 618 mmHg 12%
    09:00 +18°C° 0 mm 1 mps 619 mmHg 10%
    10:00 +20°C° 0 mm 1 mps 620 mmHg 9%
    11:00 +20°C° 0 mm 2 mps 620 mmHg 9%
    12:00 +21°C° 0 mm 3 mps 620 mmHg 8%
    13:00 +22°C° 0 mm 4 mps 620 mmHg 8%
    14:00 +22°C° 0 mm 4 mps 619 mmHg 8%
    15:00 +22°C° 0 mm 4 mps 619 mmHg 9%
    16:00 +21°C° 0 mm 4 mps 619 mmHg 9%
    17:00 +20°C° 0 mm 3 mps 619 mmHg 10%
    18:00 +18°C° 0 mm 2 mps 619 mmHg 12%
    19:00 +16°C° 0 mm 1 mps 619 mmHg 13%
    20:00 +15°C° 0 mm 1 mps 619 mmHg 14%
    21:00 +14°C° 0 mm 1 mps 619 mmHg 14%
    22:00 +14°C° 0 mm 1 mps 619 mmHg 15%
    23:00 +13°C° 0 mm 1 mps 619 mmHg 15%

    24 October, Tuesday

    Time Temperature Precipitation Wind Pressure Humidity
    00:00 +13°C° 0 mm 1 mps 618 mmHg 15%
    01:00 +12°C° 0 mm 1 mps 618 mmHg 16%
    02:00 +12°C° 0 mm 1 mps 618 mmHg 16%
    03:00 +12°C° 0 mm 2 mps 618 mmHg 16%
    04:00 +12°C° 0 mm 2 mps 618 mmHg 16%
    05:00 +12°C° 0 mm 2 mps 619 mmHg 15%
    06:00 +13°C° 0 mm 2 mps 620 mmHg 14%
    07:00 +14°C° 0 mm 2 mps 620 mmHg 14%
    08:00 +16°C° 0 mm 2 mps 621 mmHg 12%
    09:00 +18°C° 0 mm 2 mps 622 mmHg 10%
    10:00 +21°C° 0 mm 1 mps 623 mmHg 9%
    11:00 +22°C° 0 mm 1 mps 623 mmHg 8%
    12:00 +23°C° 0 mm 1 mps 622 mmHg 7%
    13:00 +24°C° 0 mm 1 mps 622 mmHg 6%
    14:00 +24°C° 0 mm 1 mps 622 mmHg 6%
    15:00 +24°C° 0 mm 1 mps 622 mmHg 6%
    16:00 +24°C° 0 mm 2 mps 622 mmHg 6%
    17:00 +21°C° 0 mm 1 mps 621 mmHg 8%
    18:00 +19°C° 0 mm 1 mps 621 mmHg 9%
    19:00 +16°C° 0 mm 1 mps 620 mmHg 10%
    20:00 +15°C° 0 mm 1 mps 620 mmHg 11%
    21:00 +15°C° 0 mm 1 mps 620 mmHg 11%
    22:00 +13°C° 0 mm 0 mps 620 mmHg 12%
    23:00 +12°C° 0 mm 0 mps 619 mmHg 12%
    Show more